Temp
9 8 8 7 6 5 6 7 6 6 6 6 7 7 7 8 9 10 11 11 11 11 11 10 10 10 10 10 10 10 10 10 10 10 10 10 10 10 10 10 10 11 11 11 11 11 11 11 11
8 7 7 6 5 6 8 6 5 5 6 5 7 7 7 7 7 9 10 10 10 11 11 10 10 10 10 10 10 9 9 9 9 9 10 10 10 10 10 10 10 10 10 11 11 11 11 11 11
7 6 6 5 4 6 7 5 4 5 5 5 6 6 6 6 7 8 9 10 10 10 10 10 9 9 9 9 9 9 9 9 9 9 9 10 10 10 10 10 10 10 10 10 11 11 11 11 11
6 6 5 5 4 4 5 5 5 5 4 4 5 5 5 6 7 8 8 9 9 10 10 9 9 9 9 9 9 8 8 9 9 9 9 9 9 9 10 10 10 10 10 10 11 11 11 11 11
6 5 4 3 3 4 4 4 3 3 2 3 3 4 5 5 6 7 8 8 9 9 10 9 8 9 9 9 9 8 8 9 9 9 9 9 9 9 10 10 10 10 10 10 10 11 11 11 11
5 5 3 4 3 4 3 3 3 3 2 2 2 4 4 5 6 6 7 8 8 9 10 8 8 8 8 9 8 8 8 9 9 9 9 9 9 10 9 10 10 10 10 10 10 10 11 11 11
5 4 2 3 3 3 2 2 2 1 1 1 1 3 3 4 6 6 6 7 8 9 9 8 7 8 8 8 8 8 8 8 8 8 9 9 9 9 9 9 10 10 10 10 10 10 10 10 10
4 3 3 2 3 2 2 1 -0 1 0 -0 1 2 3 3 5 5 5 6 8 7 8 7 7 7 7 8 7 8 8 8 8 8 8 9 9 9 9 9 9 10 10 10 10 10 10 10 10
4 3 2 2 2 2 2 2 -0 0 1 1 0 1 2 4 3 2 3 6 7 7 7 7 6 7 7 7 7 8 8 8 8 8 8 9 9 9 9 9 9 9 10 10 10 10 10 10 10
3 2 1 2 2 2 2 2 1 -0 -0 0 1 1 2 3 3 2 2 5 6 6 6 7 6 6 6 7 7 8 8 8 8 8 8 8 9 9 9 9 9 9 9 10 10 10 10 10 10
3 4 2 2 2 1 2 1 1 -0 -0 1 1 1 1 3 2 2 4 5 6 6 6 6 6 5 6 7 7 7 8 8 8 8 8 8 8 9 9 9 9 9 9 9 9 9 10 10 9
3 4 2 2 1 1 1 1 1 1 2 1 1 1 1 2 2 2 2 5 4 5 5 5 6 5 6 6 6 7 7 7 7 8 8 8 8 9 9 9 9 9 9 9 9 9 9 9 9
3 3 3 2 2 1 1 1 1 2 1 1 2 2 2 2 3 3 2 1 4 4 5 5 5 5 6 6 6 6 7 7 7 8 8 8 8 8 8 9 9 9 9 9 9 9 9 9 9
3 3 3 2 2 1 1 2 1 2 1 2 2 2 2 2 2 3 3 4 4 3 3 4 5 5 5 6 6 6 7 7 7 7 8 8 8 8 8 8 8 8 8 9 9 9 9 9 8
3 3 3 3 2 2 1 1 2 1 1 2 2 2 2 2 2 4 4 3 2 3 3 3 4 5 5 5 5 6 6 7 7 7 7 8 8 8 8 8 8 8 8 8 8 8 8 8 8
3 2 2 2 2 1 -0 2 0 0 1 2 2 2 2 2 2 3 4 3 2 1 3 3 4 4 5 5 5 5 6 6 6 7 7 7 7 7 7 7 8 8 8 8 8 8 8 8 8
2 1 1 2 2 1 -0 1 1 1 1 1 2 2 2 2 3 2 3 3 2 2 2 2 4 4 4 4 4 5 5 6 6 7 7 7 7 7 7 7 7 7 7 7 7 7 7 7 7
2 0 0 -0 1 0 2 3 4 3 2 2 2 2 2 3 3 2 3 3 3 2 1 1 4 3 4 4 4 4 5 5 6 6 6 7 7 7 7 6 6 6 6 7 7 7 7 7 7
2 1 1 1 0 1 3 4 5 4 2 3 3 3 3 3 3 3 3 3 2 2 2 2 3 4 3 3 4 4 5 5 6 6 6 6 6 6 6 6 6 6 6 6 6 6 6 6 6
2 2 2 2 1 0 2 5 5 5 5 5 4 3 4 4 3 3 3 3 3 2 2 2 2 3 4 4 4 4 5 5 5 5 6 6 6 6 6 5 5 5 5 5 5 6 6 6 6
2 1 1 -0 1 -1 1 5 7 5 5 5 4 4 4 4 3 3 3 3 3 3 3 3 3 4 3 4 3 4 4 4 4 5 5 6 6 6 5 5 5 5 5 5 5 5 5 5 6
-1 1 1 -0 -2 -0 -2 3 7 6 5 4 3 4 4 4 4 3 4 3 3 4 4 3 3 3 3 3 4 4 4 5 4 5 5 6 5 5 5 5 5 5 4 5 4 5 5 5 5
-0 0 -0 -2 -3 -3 -2 -2 6 5 5 5 4 4 4 4 4 3 3 3 3 3 4 4 4 3 3 3 4 4 4 4 4 4 4 5 5 5 5 5 5 4 4 4 4 4 4 4 5
-1 -2 -2 -2 -3 -2 0 -1 3 4 4 4 3 3 3 3 3 3 2 3 3 3 3 3 4 4 3 3 3 4 4 4 4 4 4 4 4 4 5 4 4 4 4 4 4 4 4 4 4
-1 -3 -1 -2 -3 1 -2 -3 4 4 4 4 3 3 4 3 3 3 2 2 3 3 3 3 3 3 3 3 3 4 3 3 3 4 3 3 3 4 5 4 4 4 4 4 4 4 4 4 4
0 -3 -1 0 0 2 -3 -1 3 4 4 4 3 3 3 3 3 3 3 2 2 2 2 3 3 2 3 3 3 3 3 3 3 3 3 3 3 3 3 4 4 4 4 4 4 4 4 4 4
-4 -4 -3 -2 -4 -2 1 0 4 4 3 3 3 2 2 2 2 3 2 2 2 2 2 2 2 2 2 2 2 3 3 2 2 2 3 3 3 3 2 3 2 3 3 4 3 3 3 4 3
-3 -3 -4 -4 -2 -1 1 -0 1 3 3 3 2 2 2 2 2 2 2 2 2 2 2 1 2 2 2 1 1 2 2 1 2 1 3 3 4 3 3 3 2 2 2 3 3 3 3 3 3
-4 -5 -3 -2 -1 1 2 2 3 3 2 2 2 1 1 1 1 2 2 2 2 2 2 1 1 1 1 1 1 1 2 2 2 2 3 3 3 3 3 3 2 2 1 1 2 2 3 3 3
-4 -3 -3 -1 -1 -2 -0 2 3 3 2 1 1 1 1 1 1 1 1 2 2 2 2 2 1 1 1 1 1 1 1 1 2 2 3 3 3 3 3 3 2 1 1 0 0 1 2 2 3
Height
3130 3130 3130 3131 3137 3130 3127 3129 3129 3131 3134 3130 3130 3133 3138 3139 3141 3143 3138 3138 3139 3140 3141 3143 3146 3148 3150 3151 3154 3155 3157 3158 3159 3160 3161 3162 3162 3163 3164 3165 3166 3167 3167 3168 3169 3169 3170 3170 3172
3128 3128 3128 3128 3131 3128 3124 3126 3125 3127 3129 3127 3128 3128 3128 3129 3134 3135 3135 3134 3138 3138 3138 3140 3143 3146 3148 3149 3152 3154 3156 3158 3159 3159 3160 3161 3162 3163 3164 3165 3167 3167 3168 3169 3170 3170 3171 3172 3172
3126 3126 3127 3126 3124 3124 3122 3120 3119 3118 3119 3121 3122 3124 3123 3125 3125 3128 3130 3131 3133 3136 3136 3137 3140 3142 3145 3148 3150 3152 3154 3156 3157 3159 3160 3161 3162 3164 3165 3166 3167 3168 3168 3169 3170 3170 3171 3171 3172
3124 3124 3124 3121 3119 3119 3117 3116 3114 3114 3114 3116 3116 3115 3117 3117 3119 3123 3126 3127 3129 3132 3134 3134 3136 3139 3142 3145 3148 3151 3153 3154 3155 3157 3158 3160 3162 3164 3164 3166 3167 3168 3169 3169 3170 3170 3171 3172 3172
3120 3119 3118 3115 3114 3112 3111 3110 3109 3107 3108 3110 3111 3109 3111 3112 3113 3116 3119 3121 3124 3127 3129 3131 3133 3136 3139 3143 3146 3149 3151 3153 3154 3155 3157 3159 3160 3162 3164 3165 3166 3167 3168 3170 3171 3171 3172 3172 3173
3116 3116 3115 3113 3111 3108 3106 3104 3103 3101 3102 3104 3104 3104 3104 3105 3110 3111 3113 3115 3118 3121 3125 3127 3130 3134 3136 3140 3143 3146 3148 3150 3152 3154 3156 3157 3159 3161 3162 3164 3165 3166 3168 3169 3170 3171 3172 3172 3172
3113 3112 3110 3108 3106 3104 3102 3098 3098 3098 3096 3098 3098 3095 3100 3100 3103 3103 3107 3109 3113 3116 3120 3122 3127 3130 3133 3138 3141 3144 3146 3149 3151 3153 3155 3157 3158 3160 3162 3163 3164 3166 3167 3169 3170 3171 3172 3172 3172
3109 3108 3105 3103 3103 3100 3097 3095 3094 3093 3092 3092 3092 3092 3096 3094 3094 3090 3100 3103 3107 3111 3116 3119 3123 3127 3130 3134 3138 3142 3144 3147 3150 3152 3154 3156 3157 3159 3161 3162 3163 3165 3166 3168 3169 3170 3171 3172 3172
3106 3105 3102 3099 3097 3095 3093 3091 3091 3089 3086 3087 3086 3086 3087 3088 3087 3082 3087 3097 3102 3107 3112 3116 3120 3124 3128 3131 3135 3138 3142 3145 3147 3150 3152 3154 3156 3158 3160 3162 3163 3164 3166 3167 3169 3170 3171 3172 3172
3103 3100 3098 3096 3093 3091 3088 3086 3085 3084 3082 3082 3083 3083 3081 3082 3080 3075 3088 3093 3098 3102 3107 3112 3116 3120 3124 3128 3132 3136 3140 3143 3146 3148 3151 3153 3155 3157 3159 3161 3163 3164 3165 3167 3168 3169 3170 3171 3171
3097 3096 3094 3092 3090 3086 3084 3082 3080 3077 3074 3076 3079 3079 3077 3075 3075 3072 3077 3090 3095 3099 3104 3107 3113 3118 3121 3125 3129 3133 3136 3140 3143 3146 3149 3151 3154 3156 3157 3160 3162 3163 3165 3166 3167 3168 3169 3170 3170
3094 3093 3090 3088 3085 3082 3080 3077 3075 3072 3070 3070 3073 3075 3072 3069 3068 3066 3065 3078 3089 3093 3099 3105 3109 3114 3118 3123 3127 3130 3134 3137 3140 3143 3146 3149 3151 3154 3157 3158 3160 3161 3163 3165 3165 3167 3168 3169 3169
3089 3088 3086 3083 3081 3077 3074 3071 3070 3066 3067 3065 3066 3069 3069 3064 3061 3056 3059 3049 3083 3085 3094 3100 3105 3110 3114 3120 3124 3127 3131 3134 3138 3141 3144 3147 3149 3152 3154 3157 3159 3160 3161 3163 3164 3165 3166 3167 3168
3086 3083 3081 3077 3076 3072 3069 3067 3064 3064 3061 3060 3060 3062 3065 3065 3063 3056 3056 3057 3061 3074 3088 3095 3101 3106 3111 3116 3121 3124 3128 3132 3135 3138 3141 3145 3147 3150 3152 3154 3156 3158 3160 3161 3162 3163 3164 3165 3166
3083 3079 3076 3074 3071 3067 3065 3059 3057 3058 3057 3055 3055 3057 3057 3062 3064 3059 3057 3054 3056 3062 3076 3085 3095 3102 3107 3112 3116 3121 3125 3128 3132 3135 3138 3141 3144 3147 3150 3152 3154 3156 3158 3159 3160 3161 3162 3163 3164
3079 3077 3073 3070 3067 3065 3063 3050 3055 3053 3052 3051 3050 3051 3052 3054 3054 3055 3055 3055 3060 3067 3075 3079 3091 3097 3102 3107 3112 3117 3121 3125 3128 3132 3135 3138 3142 3144 3147 3150 3152 3154 3155 3157 3158 3159 3160 3161 3162
3076 3075 3072 3067 3065 3062 3058 3046 3049 3048 3047 3046 3045 3046 3047 3049 3050 3050 3052 3059 3062 3063 3067 3068 3084 3092 3098 3103 3108 3113 3116 3121 3125 3128 3132 3135 3138 3141 3144 3147 3149 3151 3153 3154 3156 3157 3158 3159 3160
3075 3071 3068 3065 3063 3056 3051 3040 3040 3040 3037 3037 3039 3040 3041 3043 3047 3048 3050 3052 3059 3060 3060 3065 3079 3086 3092 3097 3102 3107 3112 3117 3121 3124 3128 3131 3134 3137 3141 3144 3146 3148 3150 3152 3153 3154 3156 3157 3158
3070 3067 3063 3061 3059 3052 3045 3034 3031 3030 3025 3025 3029 3034 3037 3039 3042 3042 3045 3047 3051 3054 3059 3063 3069 3079 3086 3091 3097 3102 3109 3114 3117 3120 3124 3127 3131 3134 3137 3140 3143 3145 3147 3148 3150 3151 3152 3154 3155
3065 3062 3059 3056 3053 3049 3042 3030 3026 3023 3018 3016 3020 3024 3028 3031 3034 3038 3041 3041 3044 3047 3051 3057 3071 3074 3076 3088 3095 3100 3105 3109 3112 3115 3119 3123 3127 3130 3133 3136 3139 3141 3143 3145 3146 3147 3149 3151 3152
3062 3059 3058 3056 3050 3044 3038 3027 3024 3021 3016 3013 3014 3018 3023 3027 3030 3033 3038 3040 3042 3046 3050 3057 3060 3070 3061 3081 3087 3092 3097 3101 3105 3110 3115 3119 3122 3125 3129 3132 3135 3137 3139 3141 3142 3144 3146 3147 3148
3058 3056 3055 3053 3052 3047 3040 3031 3020 3016 3015 3012 3011 3013 3017 3021 3025 3029 3032 3036 3039 3044 3050 3055 3058 3059 3060 3075 3083 3087 3093 3097 3104 3109 3112 3114 3116 3120 3124 3127 3130 3132 3135 3137 3138 3140 3142 3144 3145
3053 3053 3051 3050 3050 3046 3038 3037 3017 3015 3012 3011 3009 3009 3012 3016 3019 3022 3027 3032 3036 3040 3047 3052 3055 3056 3061 3066 3076 3081 3085 3091 3096 3102 3105 3107 3111 3115 3118 3122 3125 3128 3130 3132 3134 3135 3137 3139 3141
3048 3048 3049 3047 3048 3044 3033 3032 3016 3013 3011 3009 3009 3009 3009 3012 3015 3018 3022 3026 3029 3032 3038 3043 3047 3050 3055 3061 3067 3074 3079 3084 3088 3092 3097 3101 3106 3109 3112 3116 3120 3123 3125 3127 3128 3129 3131 3133 3135
3042 3045 3046 3044 3044 3032 3029 3029 3012 3011 3009 3009 3008 3008 3010 3011 3012 3015 3018 3021 3024 3026 3030 3035 3039 3042 3047 3052 3058 3065 3071 3076 3083 3087 3090 3094 3099 3103 3107 3112 3115 3117 3119 3121 3122 3124 3126 3127 3129
3031 3036 3036 3030 3029 3025 3027 3020 3008 3007 3007 3007 3007 3007 3007 3008 3008 3009 3011 3015 3018 3022 3024 3027 3032 3037 3040 3044 3050 3058 3063 3066 3073 3079 3082 3087 3093 3099 3102 3105 3108 3110 3111 3113 3114 3117 3120 3121 3123
3026 3027 3030 3030 3029 3027 3017 3010 3007 3005 3005 3005 3005 3006 3006 3006 3008 3008 3009 3011 3012 3015 3019 3021 3024 3030 3033 3039 3042 3047 3052 3058 3062 3069 3074 3079 3084 3089 3092 3096 3100 3102 3104 3105 3107 3109 3112 3115 3116
3018 3020 3025 3026 3023 3017 3008 3007 3001 3001 3002 3001 3003 3004 3005 3005 3005 3006 3006 3007 3008 3010 3013 3016 3019 3023 3028 3032 3035 3039 3043 3047 3054 3059 3067 3070 3078 3081 3084 3088 3091 3094 3096 3098 3100 3103 3105 3108 3110
3011 3012 3012 3013 3012 3004 2999 2998 2996 2998 3000 3000 3001 3002 3003 3003 3004 3004 3004 3003 3004 3004 3007 3011 3013 3016 3020 3024 3028 3029 3033 3038 3044 3051 3057 3063 3068 3072 3076 3080 3083 3086 3088 3090 3093 3095 3097 3100 3103
3004 3003 3004 3001 3001 3003 3000 2992 2994 2994 2997 2998 2999 3000 3001 3001 3001 3001 3001 3000 3000 3000 3001 3004 3007 3011 3014 3019 3020 3022 3027 3028 3035 3040 3047 3055 3059 3064 3066 3071 3075 3078 3080 3081 3085 3088 3091 3093 3095
Wind_Speed
12 13 14 13 9 11 18 17 19 20 15 17 20 23 20 27 16 12 6 4 8 9 14 16 20 20 18 16 15 13 10 10 12 12 12 12 13 13 13 11 11 10 9 9 8 7 6 6 5
11 10 11 12 9 16 21 19 19 18 20 23 22 23 29 30 26 28 15 10 5 6 10 17 22 21 19 18 16 14 10 10 11 12 13 13 14 14 13 12 11 11 10 10 9 8 7 6 6
10 9 9 8 12 18 14 14 17 25 26 28 31 30 25 17 31 32 31 23 19 17 13 19 23 23 21 19 17 15 12 10 10 11 13 15 16 16 15 14 12 11 10 10 9 8 7 7 6
9 9 9 12 16 17 22 22 26 27 24 21 27 35 29 28 25 33 36 32 24 22 18 23 26 25 22 21 18 16 13 11 11 12 14 16 16 15 15 14 13 12 11 10 10 9 9 8 7
10 9 9 11 14 18 20 19 20 25 23 21 21 28 33 32 25 28 34 30 30 22 22 26 29 26 24 23 19 18 15 13 12 13 14 15 15 14 14 14 13 13 12 11 10 11 9 8 7
10 10 8 13 12 17 19 18 17 22 21 22 25 32 32 31 29 25 27 27 30 26 25 30 31 28 26 24 21 19 16 14 14 14 15 15 15 14 13 13 13 13 12 11 11 10 9 8 7
11 11 10 15 16 16 13 17 15 13 16 19 21 30 25 31 43 39 26 26 32 30 31 33 33 30 28 25 24 20 17 15 14 14 15 15 15 14 14 14 13 12 12 11 11 10 8 8 8
11 12 12 13 11 15 14 14 15 18 18 16 25 23 21 25 42 41 23 24 33 33 32 35 34 32 30 28 26 21 18 16 15 15 15 15 16 16 15 14 14 13 13 11 10 9 8 7 7
12 11 11 15 13 13 17 17 13 24 28 22 19 21 24 31 28 43 19 22 37 36 35 36 35 33 31 31 27 23 20 18 17 16 16 16 16 16 15 14 13 13 13 12 11 10 8 7 6
12 17 13 16 17 19 19 19 17 22 26 28 23 14 20 30 25 30 36 24 39 40 36 37 37 35 33 31 28 23 21 19 18 17 17 17 17 16 15 15 14 13 13 12 11 9 8 6 5
18 17 18 18 18 21 22 21 18 22 27 31 26 17 22 28 23 30 41 29 39 41 38 38 38 38 33 32 28 25 24 22 20 19 18 17 17 16 16 16 15 14 13 12 11 9 8 6 4
21 17 20 20 19 22 23 25 24 23 25 22 29 20 21 24 29 36 27 31 40 42 41 39 40 37 35 32 29 26 25 23 21 20 19 19 18 18 17 16 16 14 13 12 11 9 8 6 4
22 17 21 21 21 23 24 26 25 24 16 18 22 26 19 23 32 32 29 40 43 45 43 42 42 39 37 34 31 28 27 25 23 22 20 20 19 19 18 17 16 14 14 13 11 10 9 7 5
22 24 22 25 22 26 29 27 25 18 19 19 21 28 21 22 21 27 29 41 43 29 44 44 42 40 38 35 32 29 28 27 25 24 23 21 20 19 18 18 16 15 14 12 11 11 9 8 7
20 26 24 17 16 20 21 28 26 12 17 15 17 25 28 22 21 22 29 34 55 38 29 48 42 42 40 37 34 31 30 29 27 26 24 23 22 21 19 17 16 15 13 12 12 11 10 9 8
22 23 15 16 23 19 23 31 20 21 21 18 15 22 27 25 22 22 22 18 28 25 29 45 46 42 41 39 36 33 31 31 29 28 26 24 23 21 20 18 17 15 14 13 13 12 11 11 10
15 13 16 20 16 19 20 33 24 20 23 23 18 17 25 27 24 22 16 21 33 25 32 41 44 43 41 40 37 34 32 32 31 30 28 26 24 22 20 19 17 16 14 13 13 13 12 12 12
8 15 15 19 17 30 32 38 32 29 29 27 24 20 20 27 28 22 20 20 23 36 32 30 38 41 44 42 40 38 35 33 31 31 29 28 26 24 22 20 18 16 14 14 14 14 14 14 13
18 22 24 22 23 27 30 39 36 30 30 26 25 21 20 21 29 27 22 20 23 19 32 28 35 43 43 44 41 39 35 32 31 31 31 30 28 26 25 23 19 17 16 17 16 15 15 15 14
18 22 22 25 18 27 30 37 21 19 14 20 20 23 19 17 27 31 26 22 24 23 23 31 29 44 44 43 39 37 35 34 33 32 32 30 29 28 27 24 21 19 18 18 18 17 17 17 16
17 23 22 22 25 25 21 26 18 15 15 15 17 19 19 18 24 32 30 27 23 26 26 29 29 37 48 42 42 40 40 37 35 32 31 31 32 31 29 26 23 21 19 20 19 18 18 18 18
16 21 17 19 15 10 15 10 28 16 12 14 15 17 16 18 21 30 36 33 28 25 28 28 28 23 36 37 39 41 39 39 35 31 31 33 34 32 30 29 26 24 22 21 21 20 20 20 19
19 19 20 18 14 17 9 7 9 17 14 13 12 12 12 18 21 25 32 37 34 29 27 26 29 31 35 28 27 41 43 41 37 35 34 35 35 33 33 31 29 26 24 23 23 22 22 22 22
20 17 18 18 13 8 12 9 12 8 10 8 7 6 8 13 18 23 25 33 35 36 34 33 33 31 39 41 43 43 40 41 41 41 39 37 36 36 35 33 30 29 27 26 25 26 24 23 24
24 10 3 4 5 5 8 7 18 9 11 7 7 11 12 12 11 16 23 27 35 36 38 37 37 35 37 38 41 46 46 38 37 43 43 42 38 37 36 34 31 30 31 31 32 31 28 26 26
25 20 8 6 4 1 8 10 6 8 13 15 13 9 9 11 13 12 14 24 29 37 35 38 40 38 35 39 40 44 47 45 46 49 47 44 42 38 35 33 33 33 34 33 33 33 33 30 28
15 23 16 7 4 5 10 13 23 13 14 14 14 9 8 11 12 14 15 17 27 30 35 36 38 37 35 39 40 45 53 46 48 50 48 44 38 39 34 34 33 33 35 33 32 33 33 33 31
21 15 9 10 6 7 7 10 19 11 13 16 18 11 6 8 11 13 13 13 18 23 32 34 34 35 31 30 30 38 45 51 47 51 47 45 43 36 39 36 37 35 36 36 34 33 34 34 33
27 20 15 12 11 6 6 7 10 14 8 10 15 11 9 9 10 10 11 11 13 14 25 37 34 33 35 34 30 40 41 44 46 43 46 46 45 42 39 41 38 39 37 38 38 35 35 35 34
25 25 28 19 15 10 16 16 9 18 11 12 14 15 12 10 14 15 15 15 15 13 16 27 36 34 31 30 31 37 34 47 48 48 46 48 47 47 45 45 43 41 42 38 35 33 33 35 35
Wind_Direction
285 279 273 261 240 233 248 243 236 240 254 231 229 225 247 240 237 234 218 191 209 236 231 216 208 208 202 199 194 194 196 205 187 184 183 179 172 164 159 157 153 151 147 143 138 133 128 123 118
276 269 265 261 237 243 259 258 251 251 240 235 241 242 241 240 242 234 208 196 256 259 228 213 208 210 205 198 196 193 194 185 184 184 182 177 174 169 167 165 165 162 160 153 152 147 147 141 130
271 269 265 247 240 247 270 245 257 262 260 245 240 243 242 242 237 235 227 242 255 255 256 212 209 209 208 201 196 194 197 205 198 188 185 179 178 175 173 171 171 169 164 158 155 155 147 138 124
280 278 264 243 251 261 266 274 274 270 263 244 242 247 243 239 243 237 234 240 242 243 248 213 206 208 207 203 199 196 201 205 204 197 188 182 181 182 176 174 173 169 167 163 162 154 149 140 127
299 298 269 258 271 277 293 284 268 263 258 252 248 245 245 245 231 226 232 232 234 230 233 210 204 207 206 203 199 200 201 202 200 195 190 187 183 185 182 177 174 170 167 168 161 154 149 137 120
307 300 271 270 271 290 295 290 272 259 250 253 250 249 249 247 229 215 221 222 222 220 220 205 204 206 205 202 200 200 202 199 196 192 190 189 186 186 185 180 174 170 170 167 158 153 147 132 116
302 299 269 279 287 292 304 291 270 260 254 249 249 243 248 246 237 233 244 224 213 211 210 202 203 204 205 200 200 201 200 196 193 192 191 190 186 185 185 180 174 171 171 164 159 153 142 128 113
298 291 277 284 287 289 301 276 255 251 255 258 247 255 256 251 238 241 233 222 210 201 201 205 202 204 204 200 198 199 197 194 192 191 189 190 185 182 182 181 175 171 169 166 161 154 144 133 118
302 282 273 280 292 291 300 293 265 253 257 244 247 254 245 238 246 247 241 225 207 196 196 204 203 204 201 199 195 196 194 191 190 189 188 188 183 180 180 180 175 174 169 168 165 159 151 144 125
291 283 278 288 290 292 293 293 298 268 257 253 245 258 250 242 250 254 232 227 205 194 196 202 202 203 198 197 195 194 192 190 189 187 187 185 183 179 177 178 177 176 172 170 168 164 159 150 131
290 289 292 293 289 288 289 289 286 279 269 253 240 236 251 246 243 241 228 220 205 197 199 201 203 205 202 198 195 194 192 189 187 185 184 183 181 179 177 179 178 178 174 175 173 171 170 160 153
289 300 291 297 289 283 287 282 284 285 285 268 243 237 245 248 247 240 240 201 199 202 200 199 202 203 201 199 197 195 192 189 186 185 183 182 181 181 182 181 181 179 178 181 179 179 180 179 176
295 302 294 295 289 286 283 282 289 280 300 270 247 228 237 251 255 252 262 268 194 206 205 201 201 204 200 199 197 197 194 190 188 186 185 185 182 185 184 186 185 185 185 185 186 189 191 193 195
297 298 302 298 295 281 280 285 278 297 280 271 242 227 224 238 250 251 256 255 185 203 213 210 203 203 200 199 199 198 196 193 191 189 188 188 187 188 189 189 190 190 191 193 196 198 199 204 206
300 299 303 305 306 289 281 281 281 270 277 280 243 229 224 225 235 250 258 262 244 245 221 205 205 202 201 199 200 199 198 197 194 193 192 192 192 192 194 195 196 196 197 199 205 208 209 215 218
298 299 303 308 311 294 290 286 279 277 268 270 260 232 229 223 234 244 258 255 257 248 227 205 206 203 202 200 200 200 199 200 198 198 197 197 198 198 198 199 201 200 202 206 213 215 217 221 224
291 280 286 307 306 299 290 291 293 282 276 268 261 251 228 219 231 245 236 233 240 235 216 213 208 206 204 202 201 202 201 202 202 202 202 202 202 202 202 201 202 203 205 212 218 222 223 226 227
266 286 284 292 308 301 296 296 302 296 283 270 257 249 236 220 221 232 235 231 233 248 220 200 204 209 203 204 204 204 204 204 205 205 205 205 205 203 203 203 205 209 213 220 223 226 229 230 230
280 282 286 298 302 297 307 307 315 310 283 267 251 239 241 223 217 223 230 226 225 232 245 214 200 210 205 207 207 206 208 209 209 209 209 208 206 205 206 207 211 219 222 225 226 228 232 233 232
277 282 289 305 305 304 309 307 320 336 304 259 243 239 232 232 217 218 223 229 224 232 231 260 225 206 211 209 209 210 213 213 214 213 211 209 208 209 209 211 217 225 227 229 230 231 235 237 235
279 276 287 288 300 309 317 312 319 326 321 274 247 235 233 226 223 217 216 223 222 221 222 225 241 230 214 205 210 211 212 215 216 216 214 213 212 211 212 215 221 229 231 234 234 236 238 239 237
272 286 286 287 306 298 313 293 315 318 323 290 265 249 237 225 231 220 213 217 222 220 213 216 226 241 220 206 214 214 217 221 220 220 221 219 216 213 216 220 224 229 236 239 238 239 241 243 241
277 280 279 281 285 301 270 257 278 306 308 310 273 278 232 221 230 234 222 220 223 221 214 203 217 217 214 218 231 221 218 217 219 220 223 223 220 217 220 223 228 232 236 240 242 241 243 243 243
273 266 273 278 277 259 248 220 275 270 290 294 259 270 224 231 228 232 233 225 226 222 219 216 215 211 211 216 216 221 223 225 217 216 222 227 226 221 223 227 232 238 242 244 244 245 244 242 243
252 218 241 233 212 256 214 222 250 241 264 255 262 280 270 263 257 246 241 233 229 226 221 222 221 211 216 216 218 221 225 221 232 222 223 227 229 228 229 233 237 243 248 252 251 250 244 244 243
246 208 207 246 213 192 217 239 264 231 231 242 264 265 270 249 260 265 256 241 235 232 227 223 223 218 213 216 218 224 224 235 230 231 221 226 225 233 235 237 240 244 250 254 249 245 245 243 243
202 213 221 248 252 271 236 264 261 237 232 243 237 248 229 240 253 260 261 258 236 238 232 225 222 222 224 228 233 230 220 229 223 220 221 219 223 227 237 232 245 248 253 251 248 241 242 245 242
215 212 180 207 217 235 228 247 235 215 227 223 216 218 244 246 251 257 263 258 241 239 231 228 224 226 229 226 224 225 231 231 220 218 222 223 225 226 229 237 236 246 250 258 248 242 241 244 245
214 213 206 210 219 239 247 235 266 215 206 195 208 223 224 229 235 244 257 261 257 245 229 224 225 226 227 228 234 233 225 218 216 219 223 223 224 225 230 232 238 239 243 255 250 240 239 240 243
233 239 223 218 206 238 259 246 241 190 188 200 217 218 220 235 251 252 254 256 261 260 238 230 226 227 229 231 233 229 228 229 206 217 215 223 222 228 230 230 235 243 241 243 243 245 240 239 240